Woensdrecht, Netherlands

5:39 AM CEST on June 28, 2017 (GMT +0200)
Woensdrecht Air Base

Weather History for EHWO - December, 2013

Change the Weather History Date:

Saturday, December 7, 2013

  Actual Average Record
Temperature  
Mean Temperature 42 °F -  
Max Temperature 48 °F 42 °F 57 °F (2007)
Min Temperature 37 °F 34 °F 24 °F (2003)
Degree Days  
Heating Degree Days 22    
Moisture  
Dew Point 41 °F    
Average Humidity 90    
Maximum Humidity 100    
Minimum Humidity 70    
Precipitation  
Precipitation 0.00 in - - ()
Sea Level Pressure  
Sea Level Pressure 30.27 in    
Wind  
Wind Speed 9 mph ()    
Max Wind Speed 16 mph    
Max Gust Speed -    
Visibility 5.0 miles    
Events Rain    
Averages and records for this station are not official NWS values.
T = Trace of Precipitation, MM = Missing Value Source: Averaged Metar Reports

Daily Weather History Graph

Daily Weather History Graph

Search for Another Location

Airport or City:

Trip Planner

Search our weather history database for the weather conditions in past years. The results will help you decide how hot, cold, wet, or windy it might be!

Date:

Astronomy

Dec. 07, 2013 Rise Set
Actual Time 8:33 AM CET 4:34 PM CET
Civil Twilight 7:53 AM CET 5:14 PM CET
Nautical Twilight 7:11 AM CET 5:56 PM CET
Astronomical Twilight 6:30 AM CET 6:37 PM CET
Moon 11:45 AM CET (12/7) 10:24 PM CET (12/7)
Length of Visible Light 9h 20m
Length of Day
8h 01m
Waxing Crescent, 26% of the Moon is Illuminated
Dec 7
Waxing Crescent
Dec 9
First Quarter
Dec 17
Full
Dec 25
Last Quarter
Jan 1
New

Hourly Weather History & Observations

Time (CET) Temp. Windchill Dew Point Humidity Pressure Visibility Wind Dir Wind Speed Gust Speed Precip Events Conditions
12:25 AM 39.2 °F 32.5 °F 30.2 °F 70% 30.33 in 6.2 mi West 10.4 mph - N/A   Mostly Cloudy
12:55 AM 39.2 °F 32.5 °F 30.2 °F 70% 30.33 in 6.2 mi West 10.4 mph - N/A   Overcast
1:25 AM 37.4 °F 30.3 °F 30.2 °F 75% 30.30 in 6.2 mi WSW 10.4 mph - N/A   Mostly Cloudy
1:55 AM 37.4 °F 32.1 °F 30.2 °F 75% 30.30 in 6.2 mi WSW 6.9 mph - N/A   Overcast
2:25 AM 37.4 °F 32.8 °F 32.0 °F 81% 30.30 in 6.2 mi West 5.8 mph - N/A   Overcast
2:55 AM 39.2 °F 33.6 °F 32.0 °F 75% 30.33 in 6.2 mi WSW 8.1 mph - N/A   Overcast
3:25 AM 39.2 °F 33.6 °F 33.8 °F 81% 30.33 in 6.2 mi WSW 8.1 mph - N/A   Overcast
3:55 AM 41.0 °F 35.8 °F 33.8 °F 76% 30.33 in 6.2 mi WSW 8.1 mph - N/A   Overcast
4:01 AM 41.0 °F 34.7 °F 33.8 °F 76% 30.33 in 3.1 mi WSW 10.4 mph - N/A   Haze
4:07 AM 39.2 °F 32.0 °F 35.6 °F 87% 30.33 in 5.0 mi West 11.5 mph - N/A   Overcast
4:14 AM 39.2 °F 32.5 °F 35.6 °F 87% 30.33 in 6.2 mi West 10.4 mph - N/A   Overcast
4:25 AM 39.2 °F 33.0 °F 35.6 °F 87% 30.30 in 6.2 mi WSW 9.2 mph - N/A   Overcast
4:38 AM 39.2 °F 34.2 °F 35.6 °F 87% 30.30 in 3.7 mi WSW 6.9 mph - N/A   Overcast
4:44 AM 39.2 °F 34.2 °F 35.6 °F 87% 30.30 in 3.7 mi SW 6.9 mph - N/A Rain Rain
4:55 AM 39.2 °F 35.9 °F 37.4 °F 93% 30.30 in - SW 4.6 mph - N/A   Heavy Drizzle
4:59 AM 39.2 °F 35.9 °F 37.4 °F 93% 30.30 in 1.8 mi SW 4.6 mph - N/A   Heavy Drizzle
5:07 AM 39.2 °F 35.9 °F 37.4 °F 93% 30.30 in 1.8 mi SSW 4.6 mph - N/A   Drizzle
5:08 AM 39.2 °F 35.9 °F 37.4 °F 93% 30.30 in 1.9 mi SSW 4.6 mph - N/A   Drizzle
5:25 AM 39.2 °F 35.9 °F 37.4 °F 93% 30.30 in 1.4 mi SW 4.6 mph - N/A   Heavy Drizzle
5:30 AM 39.2 °F 35.9 °F 37.4 °F 93% 30.30 in 1.3 mi SW 4.6 mph - N/A   Heavy Drizzle
5:49 AM 39.2 °F 35.0 °F 37.4 °F 93% 30.30 in 1.4 mi SW 5.8 mph - N/A   Heavy Drizzle
5:55 AM 39.2 °F 35.0 °F 37.4 °F 93% 30.30 in 1.4 mi SW 5.8 mph - N/A   Drizzle
6:07 AM 39.2 °F 35.0 °F 37.4 °F 93% 30.30 in 1.4 mi SSW 5.8 mph - N/A   Drizzle
6:11 AM 39.2 °F 35.0 °F 37.4 °F 93% 30.30 in 1.5 mi SSW 5.8 mph - N/A   Light Drizzle
6:25 AM 39.2 °F 35.9 °F 39.2 °F 100% 30.30 in 1.7 mi South 4.6 mph - N/A   Mostly Cloudy
6:29 AM 39.2 °F 37.0 °F 39.2 °F 100% 30.30 in 1.8 mi South 3.5 mph - N/A   Mostly Cloudy
6:30 AM 39.2 °F 37.0 °F 39.2 °F 100% 30.30 in 1.7 mi South 3.5 mph - N/A   Mostly Cloudy
6:55 AM 39.2 °F 35.0 °F 39.2 °F 100% 30.27 in 1.6 mi SSW 5.8 mph - N/A   Drizzle
7:25 AM 39.2 °F 34.2 °F 39.2 °F 100% 30.27 in 1.6 mi SW 6.9 mph - N/A Rain Light Rain
7:33 AM 39.2 °F 34.2 °F 39.2 °F 100% 30.27 in 1.6 mi SSW 6.9 mph - N/A Rain Light Rain Showers
7:46 AM 41.0 °F 37.1 °F 39.2 °F 93% 30.27 in 1.6 mi SW 5.8 mph - N/A Rain Rain
7:50 AM 41.0 °F 37.1 °F 39.2 °F 93% 30.27 in 1.6 mi SW 5.8 mph - N/A   Drizzle
7:55 AM 41.0 °F 37.1 °F 39.2 °F 93% 30.27 in 1.5 mi SW 5.8 mph - N/A   Heavy Drizzle
8:25 AM 41.0 °F 36.4 °F 41.0 °F 100% 30.27 in 1.5 mi SW 6.9 mph - N/A   Overcast
8:55 AM 41.0 °F 35.8 °F 41.0 °F 100% 30.27 in - SW 8.1 mph - N/A   Overcast
9:25 AM 41.0 °F 35.8 °F 41.0 °F 100% 30.27 in - SW 8.1 mph - N/A   Overcast
9:49 AM 42.8 °F 38.6 °F 41.0 °F 93% 30.27 in 2.5 mi SW 6.9 mph - N/A   Drizzle
9:55 AM 42.8 °F 38.6 °F 42.8 °F 100% 30.27 in - SW 6.9 mph - N/A   Overcast
10:08 AM 42.8 °F 37.5 °F 42.8 °F 100% 30.27 in 3.1 mi WSW 9.2 mph - N/A Rain Light Rain
10:13 AM 42.8 °F 37.0 °F 42.8 °F 100% 30.27 in - WSW 10.4 mph - N/A Rain Light Rain Showers
10:25 AM 42.8 °F 37.5 °F 42.8 °F 100% 30.27 in - SW 9.2 mph - N/A Rain Light Rain
10:38 AM 44.6 °F 39.2 °F 42.8 °F 93% 30.27 in 3.1 mi WSW 10.4 mph - N/A   Overcast
10:55 AM 44.6 °F 38.8 °F 44.6 °F 100% 30.27 in 3.7 mi WSW 11.5 mph - N/A   Overcast
11:25 AM 44.6 °F 38.4 °F 44.6 °F 100% 30.27 in 3.7 mi WSW 12.7 mph - N/A   Overcast
11:42 AM 46.4 °F 40.4 °F 44.6 °F 93% 30.27 in 5.0 mi WSW 13.8 mph - N/A   Overcast
11:46 AM 46.4 °F 40.4 °F 44.6 °F 93% 30.27 in 5.6 mi WSW 13.8 mph - N/A   Overcast
11:55 AM 46.4 °F 40.4 °F 44.6 °F 93% 30.27 in 5.6 mi WSW 13.8 mph - N/A   Overcast
11:59 AM 46.4 °F 40.1 °F 44.6 °F 93% 30.27 in 5.6 mi WSW 15.0 mph - N/A   Overcast
12:25 PM 46.4 °F 40.4 °F 44.6 °F 93% 30.27 in 6.2 mi WSW 13.8 mph - N/A   Overcast
12:55 PM 46.4 °F 40.4 °F 44.6 °F 93% 30.27 in 6.2 mi WSW 13.8 mph - N/A   Overcast
1:25 PM 46.4 °F 40.1 °F 44.6 °F 93% 30.24 in 6.2 mi WSW 15.0 mph - N/A Rain Light Rain
1:55 PM 48.2 °F - 44.6 °F 87% 30.24 in 6.2 mi West 16.1 mph - N/A   Overcast
2:25 PM 46.4 °F 40.1 °F 44.6 °F 93% 30.24 in 6.2 mi West 15.0 mph - N/A   Mostly Cloudy
2:55 PM 46.4 °F 40.4 °F 44.6 °F 93% 30.24 in 6.2 mi West 13.8 mph - N/A   Mostly Cloudy
2:56 PM 46.4 °F 40.1 °F 44.6 °F 93% 30.24 in 6.2 mi West 15.0 mph - N/A   Overcast
3:15 PM 46.4 °F 40.7 °F 44.6 °F 93% 30.24 in 6.2 mi West 12.7 mph - N/A   Overcast
3:25 PM 46.4 °F 41.1 °F 44.6 °F 93% 30.24 in 6.2 mi West 11.5 mph - N/A   Mostly Cloudy
3:29 PM 46.4 °F 40.7 °F 44.6 °F 93% 30.24 in 6.2 mi West 12.7 mph - N/A   Overcast
3:35 PM 46.4 °F 40.4 °F 44.6 °F 93% 30.24 in 6.2 mi WSW 13.8 mph - N/A   Overcast
3:43 PM 46.4 °F 40.7 °F 44.6 °F 93% 30.24 in 6.2 mi WSW 12.7 mph - N/A   Overcast
3:47 PM 46.4 °F 40.7 °F 44.6 °F 93% 30.24 in 6.2 mi WSW 12.7 mph - N/A   Overcast
3:51 PM 46.4 °F 40.7 °F 44.6 °F 93% 30.24 in 6.2 mi WSW 12.7 mph - N/A   Mostly Cloudy
3:55 PM 46.4 °F 40.4 °F 44.6 °F 93% 30.24 in 6.2 mi West 13.8 mph - N/A   Mostly Cloudy
3:57 PM 46.4 °F 40.4 °F 44.6 °F 93% 30.24 in 6.2 mi West 13.8 mph - N/A   Mostly Cloudy
4:06 PM 46.4 °F 40.4 °F 44.6 °F 93% 30.24 in 6.2 mi West 13.8 mph - N/A   Overcast
4:10 PM 46.4 °F 40.4 °F 44.6 °F 93% 30.24 in 6.2 mi West 13.8 mph - N/A   Overcast
4:14 PM 46.4 °F 40.7 °F 44.6 °F 93% 30.24 in 6.2 mi West 12.7 mph - N/A   Mostly Cloudy
4:25 PM 46.4 °F 40.7 °F 42.8 °F 87% 30.24 in 6.2 mi West 12.7 mph - N/A   Overcast
4:29 PM 46.4 °F 40.7 °F 42.8 °F 87% 30.24 in 6.2 mi West 12.7 mph - N/A   Overcast
4:55 PM 46.4 °F 41.1 °F 42.8 °F 87% 30.24 in 6.2 mi WSW 11.5 mph - N/A   Overcast
4:57 PM 46.4 °F 41.1 °F 42.8 °F 87% 30.24 in 6.2 mi WSW 11.5 mph - N/A   Mostly Cloudy
5:00 PM 46.4 °F 41.1 °F 42.8 °F 87% 30.24 in 6.2 mi WSW 11.5 mph - N/A   Mostly Cloudy
5:09 PM 46.4 °F 40.7 °F 42.8 °F 87% 30.24 in 6.2 mi WSW 12.7 mph - N/A   Overcast
5:12 PM 46.4 °F 40.7 °F 42.8 °F 87% 30.24 in 6.2 mi WSW 12.7 mph - N/A   Overcast
5:25 PM 46.4 °F 40.4 °F 42.8 °F 87% 30.24 in 6.2 mi WSW 13.8 mph - N/A   Overcast
5:55 PM 46.4 °F 41.1 °F 42.8 °F 87% 30.24 in 6.2 mi WSW 11.5 mph - N/A   Overcast
6:25 PM 46.4 °F 41.9 °F 42.8 °F 87% 30.24 in 6.2 mi WSW 9.2 mph - N/A   Overcast
6:38 PM 46.4 °F 41.5 °F 42.8 °F 87% 30.24 in 6.2 mi WSW 10.4 mph - N/A   Mostly Cloudy
6:43 PM 46.4 °F 41.5 °F 42.8 °F 87% 30.24 in 6.2 mi WSW 10.4 mph - N/A Rain Light Drizzle
6:47 PM 46.4 °F 41.5 °F 42.8 °F 87% 30.24 in 6.2 mi WSW 10.4 mph - N/A Rain Light Rain
6:55 PM 46.4 °F 41.5 °F 42.8 °F 87% 30.24 in 6.2 mi WSW 10.4 mph - N/A Rain Drizzle
7:03 PM 46.4 °F 41.5 °F 42.8 °F 87% 30.24 in 6.2 mi WSW 10.4 mph - N/A   Overcast
7:10 PM 44.6 °F 39.2 °F 41.0 °F 87% 30.24 in 6.2 mi WSW 10.4 mph - N/A   Mostly Cloudy
7:25 PM 44.6 °F 39.2 °F 41.0 °F 87% 30.24 in 6.2 mi WSW 10.4 mph - N/A   Mostly Cloudy
7:45 PM 44.6 °F 39.7 °F 41.0 °F 87% 30.24 in 6.2 mi WSW 9.2 mph - N/A   Mostly Cloudy
7:55 PM 44.6 °F 39.2 °F 42.8 °F 93% 30.24 in 6.2 mi WSW 10.4 mph - N/A   Mostly Cloudy
8:03 PM 44.6 °F 39.7 °F 42.8 °F 93% 30.24 in 6.2 mi WSW 9.2 mph - N/A   Mostly Cloudy
8:05 PM 44.6 °F 39.7 °F 42.8 °F 93% 30.24 in 6.2 mi WSW 9.2 mph - N/A   Mostly Cloudy
8:09 PM 44.6 °F 40.2 °F 42.8 °F 93% 30.24 in 6.2 mi WSW 8.1 mph - N/A   Mostly Cloudy
8:25 PM 44.6 °F 40.2 °F 41.0 °F 87% 30.24 in 6.2 mi WSW 8.1 mph - N/A   Mostly Cloudy
8:55 PM 44.6 °F 39.7 °F 41.0 °F 87% 30.24 in 6.2 mi WSW 9.2 mph - N/A   Overcast
9:25 PM 44.6 °F 39.2 °F 41.0 °F 87% 30.24 in 6.2 mi WSW 10.4 mph - N/A   Overcast
9:55 PM 44.6 °F 39.7 °F 41.0 °F 87% 30.24 in 6.2 mi WSW 9.2 mph - N/A   Overcast
10:05 PM 44.6 °F 39.2 °F 41.0 °F 87% 30.24 in 6.2 mi WSW 10.4 mph - N/A   Overcast
10:17 PM 46.4 °F 41.5 °F 41.0 °F 81% 30.27 in 6.2 mi WSW 10.4 mph - N/A   Mostly Cloudy
10:25 PM 46.4 °F 41.5 °F 41.0 °F 81% 30.24 in 6.2 mi WSW 10.4 mph - N/A   Overcast
10:26 PM 44.6 °F 39.2 °F 41.0 °F 87% 30.24 in 6.2 mi WSW 10.4 mph - N/A   Overcast
10:35 PM 44.6 °F 39.2 °F 41.0 °F 87% 30.24 in 6.2 mi WSW 10.4 mph - N/A   Overcast
10:55 PM 44.6 °F 39.7 °F 41.0 °F 87% 30.24 in 6.2 mi WSW 9.2 mph - N/A   Overcast
11:25 PM 44.6 °F 39.2 °F 41.0 °F 87% 30.24 in 6.2 mi WSW 10.4 mph - N/A   Overcast
11:55 PM 44.6 °F 39.2 °F 41.0 °F 87% 30.24 in 6.2 mi WSW 10.4 mph - N/A   Overcast